Stündliche Wetter Holm

Heute, 16 Juni, Mittwoch

Zeit Temperatur Niederschläge Wind Luftdruck Luftfeuchtigkeit
00:00 +15°C° 0 mm 2 m/S 744 mmHg 86%
01:00 +14°C° 0 mm 2 m/S 744 mmHg 90%
02:00 +14°C° 0 mm 2 m/S 744 mmHg 93%
03:00 +15°C° 0 mm 2 m/S 744 mmHg 91%
04:00 +15°C° 0 mm 2 m/S 744 mmHg 89%
05:00 +16°C° 0 mm 2 m/S 745 mmHg 88%
06:00 +17°C° 0 mm 3 m/S 745 mmHg 76%
07:00 +18°C° 0 mm 3 m/S 745 mmHg 64%
08:00 +20°C° 0 mm 4 m/S 746 mmHg 53%
09:00 +21°C° 0 mm 4 m/S 746 mmHg 47%
10:00 +21°C° 0 mm 4 m/S 746 mmHg 42%
11:00 +22°C° 0 mm 3 m/S 747 mmHg 36%
12:00 +24°C° 0 mm 3 m/S 747 mmHg 35%
13:00 +23°C° 0 mm 4 m/S 747 mmHg 33%
14:00 +23°C° 0 mm 4 m/S 747 mmHg 31%
15:00 +24°C° 0 mm 3 m/S 747 mmHg 35%
16:00 +24°C° 0 mm 3 m/S 747 mmHg 38%
17:00 +22°C° 0 mm 3 m/S 748 mmHg 41%
18:00 +20°C° 0 mm 3 m/S 748 mmHg 49%
19:00 +18°C° 0 mm 2 m/S 748 mmHg 57%
20:00 +16°C° 0 mm 2 m/S 749 mmHg 65%
21:00 +15°C° 0 mm 2 m/S 749 mmHg 66%
22:00 +14°C° 0 mm 2 m/S 750 mmHg 67%
23:00 +13°C° 0 mm 2 m/S 750 mmHg 69%

Morgen, 17 Juni, Donnerstag

Zeit Temperatur Niederschläge Wind Luftdruck Luftfeuchtigkeit
00:00 +13°C° 0 mm 2 m/S 751 mmHg 69%
01:00 +12°C° 0 mm 2 m/S 751 mmHg 69%
02:00 +11°C° 0 mm 1 m/S 751 mmHg 69%
03:00 +12°C° 0 mm 1 m/S 752 mmHg 68%
04:00 +13°C° 0 mm 1 m/S 752 mmHg 67%
05:00 +13°C° 0 mm 1 m/S 752 mmHg 66%
06:00 +15°C° 0 mm 0 m/S 753 mmHg 59%
07:00 +17°C° 0 mm 0 m/S 753 mmHg 52%
08:00 +19°C° 0 mm 0 m/S 753 mmHg 45%
09:00 +22°C° 0 mm 1 m/S 753 mmHg 42%
10:00 +23°C° 0 mm 1 m/S 754 mmHg 38%
11:00 +24°C° 0 mm 1 m/S 754 mmHg 35%
12:00 +25°C° 0 mm 2 m/S 754 mmHg 34%
13:00 +25°C° 0 mm 2 m/S 753 mmHg 34%
14:00 +26°C° 0 mm 2 m/S 753 mmHg 33%
15:00 +26°C° 0 mm 2 m/S 753 mmHg 36%
16:00 +26°C° 0 mm 2 m/S 753 mmHg 39%
17:00 +26°C° 0 mm 1 m/S 753 mmHg 42%
18:00 +24°C° 0 mm 1 m/S 754 mmHg 51%
19:00 +21°C° 0 mm 1 m/S 754 mmHg 59%
20:00 +19°C° 0 mm 1 m/S 754 mmHg 68%
21:00 +18°C° 0 mm 1 m/S 754 mmHg 71%
22:00 +16°C° 0 mm 1 m/S 754 mmHg 73%
23:00 +14°C° 0 mm 0 m/S 755 mmHg 76%

übermorgen, 18 Juni, Freitag

Zeit Temperatur Niederschläge Wind Luftdruck Luftfeuchtigkeit
00:00 +14°C° 0 mm 0 m/S 755 mmHg 78%
01:00 +13°C° 0 mm 0 m/S 755 mmHg 79%
02:00 +13°C° 0 mm 0 m/S 755 mmHg 81%
03:00 +14°C° 0 mm 0 m/S 755 mmHg 79%
04:00 +15°C° 0 mm 0 m/S 755 mmHg 77%
05:00 +16°C° 0 mm 1 m/S 756 mmHg 75%
06:00 +19°C° 0 mm 1 m/S 756 mmHg 68%
07:00 +21°C° 0 mm 1 m/S 756 mmHg 61%
08:00 +23°C° 0 mm 2 m/S 756 mmHg 54%
09:00 +25°C° 0 mm 2 m/S 755 mmHg 50%
10:00 +26°C° 0 mm 2 m/S 755 mmHg 45%
11:00 +27°C° 0 mm 2 m/S 755 mmHg 41%
12:00 +28°C° 0 mm 3 m/S 755 mmHg 40%
13:00 +28°C° 0 mm 3 m/S 755 mmHg 39%
14:00 +29°C° 0 mm 3 m/S 755 mmHg 38%
15:00 +29°C° 0 mm 3 m/S 754 mmHg 41%
16:00 +28°C° 0 mm 3 m/S 754 mmHg 45%
17:00 +28°C° 0 mm 3 m/S 754 mmHg 48%
18:00 +26°C° 0 mm 3 m/S 754 mmHg 57%
19:00 +22°C° 0 mm 3 m/S 754 mmHg 66%
20:00 +20°C° 0 mm 3 m/S 754 mmHg 75%
21:00 +19°C° 0 mm 2 m/S 754 mmHg 78%
22:00 +19°C° 0 mm 2 m/S 754 mmHg 80%
23:00 +18°C° 0 mm 2 m/S 754 mmHg 83%

19 Juni, Samstag

Zeit Temperatur Niederschläge Wind Luftdruck Luftfeuchtigkeit
00:00 +17°C° 0 mm 2 m/S 755 mmHg 85%
01:00 +17°C° 0 mm 2 m/S 755 mmHg 87%
02:00 +16°C° 0 mm 2 m/S 755 mmHg 89%
03:00 +17°C° 0 mm 2 m/S 755 mmHg 87%
04:00 +18°C° 0 mm 2 m/S 755 mmHg 85%
05:00 +18°C° 0 mm 2 m/S 755 mmHg 82%
06:00 +20°C° 0 mm 2 m/S 755 mmHg 74%
07:00 +22°C° 0 mm 3 m/S 755 mmHg 66%
08:00 +25°C° 0 mm 3 m/S 755 mmHg 57%
09:00 +26°C° 0 mm 3 m/S 755 mmHg 53%
10:00 +27°C° 0 mm 3 m/S 755 mmHg 48%
11:00 +29°C° 0 mm 3 m/S 755 mmHg 43%
12:00 +29°C° 0 mm 3 m/S 755 mmHg 42%
13:00 +30°C° 0 mm 3 m/S 754 mmHg 40%
14:00 +30°C° 0 mm 3 m/S 754 mmHg 39%
15:00 +30°C° 0 mm 3 m/S 754 mmHg 42%
16:00 +30°C° 0 mm 3 m/S 754 mmHg 45%
17:00 +29°C° 0 mm 2 m/S 753 mmHg 48%
18:00 +27°C° 0 mm 2 m/S 753 mmHg 58%
19:00 +25°C° 0 mm 2 m/S 753 mmHg 68%
20:00 +22°C° 0 mm 3 m/S 753 mmHg 78%
21:00 +21°C° 0 mm 2 m/S 754 mmHg 80%
22:00 +20°C° 0 mm 2 m/S 754 mmHg 83%
23:00 +19°C° 0 mm 2 m/S 754 mmHg 85%

20 Juni, Sonntag

Zeit Temperatur Niederschläge Wind Luftdruck Luftfeuchtigkeit
00:00 +18°C° 0 mm 2 m/S 754 mmHg 86%
01:00 +18°C° 0 mm 2 m/S 754 mmHg 86%
02:00 +17°C° 0 mm 2 m/S 754 mmHg 87%
03:00 +18°C° 0 mm 2 m/S 754 mmHg 85%
04:00 +18°C° 0 mm 2 m/S 754 mmHg 83%
05:00 +20°C° 0 mm 1 m/S 755 mmHg 81%
06:00 +21°C° 0 mm 2 m/S 754 mmHg 74%
07:00 +24°C° 0 mm 2 m/S 754 mmHg 66%
08:00 +26°C° 0 mm 2 m/S 754 mmHg 58%
09:00 +27°C° 0 mm 2 m/S 754 mmHg 53%
10:00 +28°C° 0 mm 2 m/S 754 mmHg 48%
11:00 +29°C° 0 mm 3 m/S 754 mmHg 42%
12:00 +30°C° 0 mm 3 m/S 753 mmHg 40%
13:00 +30°C° 0 mm 3 m/S 753 mmHg 38%
14:00 +30°C° 0 mm 3 m/S 753 mmHg 37%
15:00 +30°C° 0 mm 3 m/S 753 mmHg 40%
16:00 +30°C° 0 mm 3 m/S 752 mmHg 43%
17:00 +29°C° 0 mm 3 m/S 752 mmHg 47%
18:00 +27°C° 0 mm 2 m/S 752 mmHg 56%
19:00 +25°C° 0 mm 2 m/S 752 mmHg 66%
20:00 +23°C° 0 mm 2 m/S 752 mmHg 75%
21:00 +21°C° 0 mm 2 m/S 752 mmHg 78%
22:00 +20°C° 0 mm 2 m/S 752 mmHg 81%
23:00 +19°C° 0 mm 2 m/S 752 mmHg 83%

21 Juni, Montag

Zeit Temperatur Niederschläge Wind Luftdruck Luftfeuchtigkeit
00:00 +18°C° 0 mm 2 m/S 752 mmHg 85%
01:00 +17°C° 0 mm 2 m/S 752 mmHg 86%
02:00 +17°C° 0 mm 2 m/S 752 mmHg 88%
03:00 +18°C° 0 mm 2 m/S 752 mmHg 85%
04:00 +18°C° 0 mm 2 m/S 752 mmHg 82%
05:00 +20°C° 0 mm 1 m/S 752 mmHg 80%
06:00 +21°C° 0 mm 2 m/S 752 mmHg 72%
07:00 +24°C° 0 mm 2 m/S 752 mmHg 64%
08:00 +26°C° 0 mm 2 m/S 752 mmHg 56%
09:00 +27°C° 0 mm 2 m/S 752 mmHg 51%
10:00 +28°C° 0 mm 2 m/S 752 mmHg 47%
11:00 +29°C° 0 mm 2 m/S 752 mmHg 42%
12:00 +30°C° 0 mm 2 m/S 751 mmHg 40%
13:00 +30°C° 0 mm 2 m/S 751 mmHg 38%
14:00 +31°C° 0 mm 2 m/S 751 mmHg 36%
15:00 +31°C° 0 mm 2 m/S 751 mmHg 39%
16:00 +30°C° 0 mm 2 m/S 751 mmHg 42%
17:00 +30°C° 0 mm 2 m/S 751 mmHg 45%
18:00 +28°C° 0 mm 2 m/S 751 mmHg 54%
19:00 +26°C° 0 mm 2 m/S 751 mmHg 63%
20:00 +23°C° 0 mm 2 m/S 751 mmHg 72%
21:00 +23°C° 0 mm 2 m/S 751 mmHg 76%
22:00 +21°C° 0 mm 2 m/S 751 mmHg 79%
23:00 +20°C° 0 mm 2 m/S 751 mmHg 82%
Mehr zeigen

Wir brauchen deine Erlaubnis

Meteoprog und unser Service Anbieter werden persönliche Daten aufbewahren, so wie Cookies, Geräte Bezeichnung oder ähnliche Technologien von deinem Gerät und Prozess, so wie Persönliche Daten Inhalte und Werbungen, genauso wie social Media und den Verkehr zu analysieren.

  • Aufbewahrung und/oder Zugang zu deiner Geräte Informationen.

    Cookies, Geräte Bezeichnung oder andere Informationen, können aufbewahrt oder Zugang zu deinem Gerät erhalten, für den Grund, der oben angegeben wird.

  • Personalisierte Werbung und Inhalte, Messungen, Einblick in das Publikum und Produkt Entwicklung.

    Werbungen und Inhalte können personalisiert werden, basierend auf ein Profil. Mehr Daten können besser personalisierte Werbungen und Inhalte hinzufügen. Werbung und Inhalte können gezeigt und gemessen werden. Einblicke über das Publikum, welche die Werbung gesehen haben und den Inhalt, können abgeleitet werden. So wie Daten können genutzt werden, um es zu verbessern oder die Benutzer Erfahrung zu verbessern das System und die Software.

Wenn du “Ich stimme zu” klickst, erlaubst du uns, die Cookies zu benutzen die Geräte Bezeichnung, den Web oder ähnliche Technologien zu benutzen. Deine Settings, können in deinem Gerät bei deinem Browser geändert werden.

Für den bestimmten Zweck, berechtigten Interessen beruhen darauf, mehr als auf den Inhalt. Du kannst mehr darüber in unseren Privaten und Cookie Politik lesen.